sat.trackr.live / text

‹ back to catalog

STARLINK-32897

NORAD 62967 · 2025-029V

PAYLOAD ACTIVE UNKNOWN

§ Identity

Operator
Country
US
Launch date
2025-02-11
Launch site
AFWTR
Launch vehicle
Mass (kg)
RCS (m²)

Purposes: comms

External: N2YO · Heavens-Above · Gunter

§ Orbital elements

Epoch: 2026-05-25T05:15:57.439584Z

Period
93.85 min
Inclination
53.1587°
Eccentricity
0.0001427
Mean motion
15.34412743 rev/d
Perigee alt
461.7 km
Apogee alt
463.6 km
Semi-major
6,840.8 km
B*
7.2494e-4
RAAN
236.3405°
Arg perigee
88.6300°
Mean anomaly
271.4866°
Rev number
7,304

§ Raw data

STARLINK-328971 62967U 25029V   26145.21941481  .00024206  00000+0  72494-3 0  99982 62967  53.1587 236.3405 0001427  88.6300 271.4866 15.34412743 73045

JSON: /api/v1/satellites/62967 · /tle

For live sub-satellite position, see the globe view (requires WebGL).

§ Visibility from observer

Set your observer location to see the next 7 days of passes ≥ 10°. The values pass through the URL so the page stays shareable.

No JS? Fill the form by hand. The geolocation button needs JavaScript.